Time,TemperatureF,DewpointF,PressureIn,WindDirection,WindDirectionDegrees,WindSpeedMPH,WindSpeedGustMPH,Humidity,HourlyPrecipIn,Conditions,Clouds,dailyrainin,SoftwareType,DateUTC
2013-06-03 00:02:00,72.0,70.0,29.89,SSE,149,0.0,14.0,94,0.00,,,1.08,,2013-06-03 05:02:00,
2013-06-03 00:12:00,73.0,71.0,29.90,SSE,149,0.0,0.0,95,0.00,,,1.08,,2013-06-03 05:12:00,
2013-06-03 00:22:00,73.0,71.0,29.90,SSE,149,0.0,0.0,95,0.00,,,1.08,,2013-06-03 05:22:00,
2013-06-03 00:32:00,73.0,71.0,29.90,SSE,149,0.0,0.0,95,0.00,,,1.08,,2013-06-03 05:32:00,
2013-06-03 00:42:00,73.0,71.0,29.90,SSE,149,0.0,0.0,95,0.00,,,1.08,,2013-06-03 05:42:00,
2013-06-03 00:52:00,73.0,71.0,29.90,SSE,149,0.0,0.0,95,0.00,,,1.08,,2013-06-03 05:52:00,
2013-06-03 01:02:00,73.0,71.0,29.90,SSE,149,0.0,0.0,95,0.00,,,0.87,,2013-06-03 06:02:00,
2013-06-03 01:12:00,73.0,71.0,29.90,SSE,149,0.0,0.0,95,0.00,,,0.87,,2013-06-03 06:12:00,
2013-06-03 01:22:00,73.0,72.0,29.89,SSE,149,0.0,0.0,96,0.00,,,0.55,,2013-06-03 06:22:00,
2013-06-03 01:32:00,73.0,72.0,29.89,SSE,149,0.0,0.0,96,0.00,,,0.39,,2013-06-03 06:32:00,
2013-06-03 01:42:00,73.0,72.0,29.89,SSE,149,0.0,0.0,96,0.00,,,0.39,,2013-06-03 06:42:00,
2013-06-03 01:52:00,73.0,72.0,29.88,SSE,149,0.0,0.0,96,0.00,,,0.30,,2013-06-03 06:52:00,
2013-06-03 02:02:00,72.0,71.0,29.88,SSE,149,0.0,0.0,96,0.00,,,0.29,,2013-06-03 07:02:00,
2013-06-03 02:12:00,72.0,71.0,29.88,SSE,149,0.0,0.0,96,0.00,,,0.29,,2013-06-03 07:12:00,
2013-06-03 02:22:00,72.0,71.0,29.88,SSE,149,0.0,0.0,96,0.00,,,0.27,,2013-06-03 07:22:00,
2013-06-03 02:32:00,72.0,71.0,29.88,SSE,149,0.0,0.0,96,0.00,,,0.27,,2013-06-03 07:32:00,
2013-06-03 02:42:00,72.0,71.0,29.88,SSE,149,0.0,0.0,96,0.00,,,0.27,,2013-06-03 07:42:00,
2013-06-03 02:52:00,72.0,71.0,29.88,SSE,149,0.0,0.0,96,0.00,,,0.27,,2013-06-03 07:52:00,
2013-06-03 03:02:00,72.0,71.0,29.88,SSE,149,0.0,0.0,96,0.00,,,0.27,,2013-06-03 08:02:00,
2013-06-03 03:12:00,72.0,71.0,29.88,SSE,149,0.0,0.0,96,0.00,,,0.27,,2013-06-03 08:12:00,
2013-06-03 03:22:00,72.0,71.0,29.88,SSE,149,0.0,0.0,97,0.00,,,0.25,,2013-06-03 08:22:00,
2013-06-03 03:32:00,72.0,71.0,29.87,SSE,149,0.0,0.0,97,0.01,,,0.26,,2013-06-03 08:32:00,
2013-06-03 03:42:00,72.0,71.0,29.87,SSE,149,0.0,0.0,97,0.01,,,0.26,,2013-06-03 08:42:00,
2013-06-03 03:52:00,72.0,71.0,29.88,SSE,149,0.0,0.0,97,0.01,,,0.26,,2013-06-03 08:52:00,
2013-06-03 04:02:00,72.0,71.0,29.88,SSE,149,0.0,0.0,97,0.01,,,0.26,,2013-06-03 09:02:00,
2013-06-03 04:12:00,71.0,70.0,29.88,SSE,149,0.0,0.0,97,0.01,,,0.26,,2013-06-03 09:12:00,
2013-06-03 04:22:00,71.0,70.0,29.88,SSE,149,0.0,0.0,97,0.01,,,0.26,,2013-06-03 09:22:00,
2013-06-03 04:33:00,71.0,70.0,29.89,SSE,149,0.0,0.0,97,0.00,,,0.26,,2013-06-03 09:33:00,
2013-06-03 04:42:00,71.0,70.0,29.89,SSE,149,0.0,0.0,97,0.00,,,0.26,,2013-06-03 09:42:00,
2013-06-03 04:53:00,71.0,70.0,29.89,SSE,149,0.0,0.0,97,0.00,,,0.26,,2013-06-03 09:53:00,
2013-06-03 05:03:00,71.0,70.0,29.90,SSE,149,0.0,0.0,97,0.00,,,0.25,,2013-06-03 10:03:00,
2013-06-03 05:12:00,71.0,70.0,29.90,SSE,149,0.0,0.0,97,0.00,,,0.25,,2013-06-03 10:12:00,
2013-06-03 05:22:00,71.0,70.0,29.90,SSE,149,0.0,0.0,97,0.00,,,0.25,,2013-06-03 10:22:00,
2013-06-03 05:33:00,71.0,70.0,29.90,SSE,149,0.0,0.0,97,0.00,,,0.24,,2013-06-03 10:33:00,
2013-06-03 05:42:00,71.0,70.0,29.90,SSE,149,0.0,0.0,97,0.00,,,0.24,,2013-06-03 10:42:00,
2013-06-03 05:52:00,71.0,70.0,29.91,SSE,149,0.0,0.0,97,0.00,,,0.22,,2013-06-03 10:52:00,
2013-06-03 06:02:00,71.0,70.0,29.91,SSE,149,0.0,0.0,97,0.00,,,0.21,,2013-06-03 11:02:00,
2013-06-03 06:12:00,71.0,70.0,29.91,SSE,149,0.0,0.0,97,0.00,,,0.17,,2013-06-03 11:12:00,
2013-06-03 06:22:00,71.0,70.0,29.91,SSE,149,0.0,0.0,97,0.00,,,0.17,,2013-06-03 11:22:00,
2013-06-03 06:32:00,71.0,70.0,29.91,ENE,67,0.0,2.0,97,0.00,,,0.15,,2013-06-03 11:32:00,
2013-06-03 06:42:00,71.0,70.0,29.91,ENE,67,0.0,2.0,97,0.00,,,0.15,,2013-06-03 11:42:00,
2013-06-03 06:52:00,70.0,69.0,29.92,ENE,67,0.0,2.0,97,0.00,,,0.11,,2013-06-03 11:52:00,
2013-06-03 07:02:00,70.0,69.0,29.92,ENE,67,0.0,2.0,97,0.00,,,0.09,,2013-06-03 12:02:00,
2013-06-03 07:12:00,70.0,69.0,29.92,ENE,67,0.0,2.0,97,0.00,,,0.09,,2013-06-03 12:12:00,
2013-06-03 07:22:00,70.0,69.0,29.93,ENE,67,0.0,2.0,97,0.00,,,0.09,,2013-06-03 12:22:00,
2013-06-03 07:32:00,70.0,69.0,29.93,ENE,68,0.0,2.0,97,0.00,,,0.08,,2013-06-03 12:32:00,
2013-06-03 07:42:00,70.0,69.0,29.93,ENE,68,0.0,2.0,97,0.00,,,0.08,,2013-06-03 12:42:00,
2013-06-03 07:52:00,70.0,69.0,29.93,NE,38,0.0,3.0,98,0.00,,,0.08,,2013-06-03 12:52:00,
2013-06-03 08:02:00,71.0,70.0,29.93,NNE,23,1.0,3.0,98,0.00,,,0.07,,2013-06-03 13:02:00,
2013-06-03 08:12:00,71.0,70.0,29.93,NNE,23,1.0,3.0,98,0.00,,,0.07,,2013-06-03 13:12:00,
2013-06-03 08:22:00,70.0,69.0,29.94,NE,38,0.0,5.0,97,0.00,,,0.07,,2013-06-03 13:22:00,
2013-06-03 08:32:00,71.0,70.0,29.94,NE,43,0.0,5.0,97,0.00,,,0.07,,2013-06-03 13:32:00,
2013-06-03 08:42:00,71.0,70.0,29.94,NE,43,0.0,5.0,97,0.00,,,0.07,,2013-06-03 13:42:00,
2013-06-03 08:52:00,71.0,70.0,29.95,NNE,28,0.0,5.0,97,0.00,,,0.07,,2013-06-03 13:52:00,
2013-06-03 09:02:00,72.0,71.0,29.95,NNE,21,1.0,5.0,96,0.00,,,0.07,,2013-06-03 14:02:00,
2013-06-03 09:12:00,72.0,71.0,29.95,NNE,21,1.0,5.0,96,0.00,,,0.07,,2013-06-03 14:12:00,
2013-06-03 09:22:00,72.0,70.0,29.94,North,356,0.0,5.0,95,0.00,,,0.07,,2013-06-03 14:22:00,
2013-06-03 09:32:00,73.0,71.0,29.94,North,356,0.0,5.0,94,0.00,,,0.07,,2013-06-03 14:32:00,
2013-06-03 09:42:00,73.0,71.0,29.94,North,356,0.0,5.0,94,0.00,,,0.07,,2013-06-03 14:42:00,
2013-06-03 09:52:00,74.0,71.0,29.94,NE,43,2.0,5.0,91,0.00,,,0.07,,2013-06-03 14:52:00,
2013-06-03 10:02:00,75.0,72.0,29.94,NE,43,0.0,5.0,89,0.00,,,0.07,,2013-06-03 15:02:00,
2013-06-03 10:12:00,75.0,72.0,29.94,NE,43,0.0,5.0,89,0.00,,,0.07,,2013-06-03 15:12:00,
2013-06-03 10:22:00,76.0,72.0,29.94,NNE,28,1.0,5.0,86,0.00,,,0.07,,2013-06-03 15:22:00,
2013-06-03 10:33:00,78.0,73.0,29.94,ENE,63,1.0,5.0,86,0.00,,,0.07,,2013-06-03 15:33:00,
2013-06-03 10:43:00,78.0,73.0,29.94,ENE,63,1.0,5.0,86,0.00,,,0.07,,2013-06-03 15:43:00,
2013-06-03 10:53:00,78.0,72.0,29.93,ENE,75,0.0,5.0,83,0.00,,,0.07,,2013-06-03 15:53:00,
2013-06-03 11:03:00,79.0,72.0,29.93,NE,56,1.0,5.0,79,0.00,,,0.07,,2013-06-03 16:03:00,
2013-06-03 11:12:00,80.0,73.0,29.93,NNW,342,0.0,6.0,80,0.00,,,0.07,,2013-06-03 16:12:00,
2013-06-03 11:23:00,80.0,73.0,29.93,NNW,342,0.0,6.0,80,0.00,,,0.07,,2013-06-03 16:23:00,
2013-06-03 11:33:00,82.0,73.0,29.93,NE,51,1.0,6.0,74,0.00,,,0.07,,2013-06-03 16:33:00,
2013-06-03 11:42:00,83.0,73.0,29.92,ENE,57,0.0,6.0,72,0.00,,,0.07,,2013-06-03 16:42:00,
2013-06-03 11:53:00,83.0,73.0,29.92,ENE,57,0.0,6.0,72,0.00,,,0.07,,2013-06-03 16:53:00,
2013-06-03 12:02:00,83.0,73.0,29.93,ENE,57,2.0,6.0,72,0.00,,,0.07,,2013-06-03 17:02:00,
2013-06-03 12:12:00,83.0,72.0,29.92,NNE,26,2.0,7.0,70,0.00,,,0.07,,2013-06-03 17:12:00,
2013-06-03 12:22:00,83.0,72.0,29.92,NNE,26,2.0,7.0,70,0.00,,,0.07,,2013-06-03 17:22:00,
2013-06-03 12:33:00,83.0,72.0,29.93,North,358,1.0,7.0,69,0.00,,,0.07,,2013-06-03 17:33:00,
2013-06-03 12:42:00,82.0,71.0,29.92,NE,43,1.0,7.0,70,0.00,,,0.07,,2013-06-03 17:42:00,
2013-06-03 12:52:00,82.0,71.0,29.92,NE,43,1.0,7.0,70,0.00,,,0.07,,2013-06-03 17:52:00,
2013-06-03 13:02:00,83.0,71.0,29.92,NE,43,0.0,7.0,67,0.00,,,0.07,,2013-06-03 18:02:00,
2013-06-03 13:12:00,83.0,72.0,29.91,NNE,33,0.0,7.0,69,0.00,,,0.07,,2013-06-03 18:12:00,
2013-06-03 13:22:00,83.0,72.0,29.91,NNE,33,0.0,7.0,69,0.00,,,0.07,,2013-06-03 18:22:00,
2013-06-03 13:32:00,83.0,72.0,29.91,NNW,331,2.0,7.0,69,0.00,,,0.07,,2013-06-03 18:32:00,
2013-06-03 13:42:00,83.0,72.0,29.91,NNW,331,2.0,7.0,69,0.00,,,0.07,,2013-06-03 18:42:00,
2013-06-03 13:52:00,83.0,70.0,29.90,East,88,0.0,7.0,64,0.00,,,0.07,,2013-06-03 18:52:00,
2013-06-03 14:03:00,83.0,70.0,29.90,North,5,1.0,7.0,65,0.00,,,0.07,,2013-06-03 19:03:00,
2013-06-03 14:12:00,83.0,70.0,29.90,North,5,1.0,7.0,65,0.00,,,0.07,,2013-06-03 19:12:00,
2013-06-03 14:22:00,85.0,71.0,29.89,ENE,57,0.0,7.0,63,0.00,,,0.07,,2013-06-03 19:22:00,
2013-06-03 14:32:00,85.0,71.0,29.89,ENE,65,0.0,7.0,63,0.00,,,0.07,,2013-06-03 19:32:00,
2013-06-03 14:42:00,85.0,71.0,29.89,ENE,65,0.0,7.0,63,0.00,,,0.07,,2013-06-03 19:42:00,
2013-06-03 14:52:00,83.0,71.0,29.89,NE,51,1.0,7.0,68,0.00,,,0.07,,2013-06-03 19:52:00,
2013-06-03 15:02:00,83.0,70.0,29.88,NE,51,1.0,7.0,65,0.00,,,0.07,,2013-06-03 20:02:00,
2013-06-03 15:12:00,83.0,70.0,29.88,NE,51,1.0,7.0,65,0.00,,,0.07,,2013-06-03 20:12:00,
2013-06-03 15:22:00,83.0,72.0,29.88,NE,53,0.0,7.0,69,0.00,,,0.07,,2013-06-03 20:22:00,
2013-06-03 15:32:00,82.0,70.0,29.88,East,82,0.0,7.0,67,0.00,,,0.07,,2013-06-03 20:32:00,
2013-06-03 15:42:00,82.0,70.0,29.88,East,82,0.0,7.0,67,0.00,,,0.07,,2013-06-03 20:42:00,
2013-06-03 15:52:00,83.0,71.0,29.87,ENE,57,0.0,7.0,67,0.00,,,0.07,,2013-06-03 20:52:00,
2013-06-03 16:02:00,84.0,70.0,29.87,NNW,331,1.0,7.0,63,0.00,,,0.07,,2013-06-03 21:02:00,
2013-06-03 16:12:00,86.0,72.0,29.86,NNE,17,0.0,7.0,64,0.00,,,0.07,,2013-06-03 21:12:00,
2013-06-03 16:22:00,86.0,72.0,29.86,NNE,17,0.0,7.0,64,0.00,,,0.07,,2013-06-03 21:22:00,
2013-06-03 16:33:00,84.0,72.0,29.87,NE,49,0.0,7.0,68,0.00,,,0.07,,2013-06-03 21:33:00,
2013-06-03 16:43:00,84.0,72.0,29.87,NE,49,0.0,7.0,68,0.00,,,0.07,,2013-06-03 21:43:00,
2013-06-03 16:53:00,83.0,70.0,29.86,ENE,76,0.0,7.0,65,0.00,,,0.07,,2013-06-03 21:53:00,
2013-06-03 17:03:00,84.0,70.0,29.86,NW,322,1.0,7.0,64,0.00,,,0.07,,2013-06-03 22:03:00,
2013-06-03 17:12:00,84.0,70.0,29.86,NW,322,1.0,7.0,64,0.00,,,0.07,,2013-06-03 22:12:00,
2013-06-03 17:22:00,85.0,70.0,29.86,East,79,0.0,7.0,62,0.00,,,0.07,,2013-06-03 22:22:00,
2013-06-03 17:32:00,83.0,71.0,29.85,NE,47,0.0,7.0,67,0.00,,,0.07,,2013-06-03 22:32:00,
2013-06-03 17:42:00,83.0,71.0,29.85,NE,47,0.0,7.0,67,0.00,,,0.07,,2013-06-03 22:42:00,
2013-06-03 17:53:00,83.0,69.0,29.85,ENE,74,1.0,7.0,62,0.00,,,0.07,,2013-06-03 22:53:00,
2013-06-03 18:02:00,83.0,70.0,29.85,ENE,69,0.0,7.0,66,0.00,,,0.07,,2013-06-03 23:02:00,
2013-06-03 18:12:00,83.0,70.0,29.85,ENE,69,0.0,7.0,66,0.00,,,0.07,,2013-06-03 23:12:00,
2013-06-03 18:22:00,83.0,71.0,29.85,ENE,66,0.0,7.0,67,0.00,,,0.07,,2013-06-03 23:22:00,
2013-06-03 18:32:00,82.0,70.0,29.85,NE,38,0.0,7.0,68,0.00,,,0.07,,2013-06-03 23:32:00,
2013-06-03 18:42:00,82.0,70.0,29.85,NE,38,0.0,7.0,68,0.00,,,0.07,,2013-06-03 23:42:00,
2013-06-03 18:52:00,82.0,70.0,29.85,NNE,24,0.0,7.0,68,0.00,,,0.07,,2013-06-03 23:52:00,
2013-06-03 19:02:00,81.0,70.0,29.86,NNE,33,0.0,7.0,70,0.00,,,0.07,,2013-06-04 00:02:00,
2013-06-03 19:12:00,81.0,70.0,29.86,NNE,33,0.0,7.0,70,0.00,,,0.07,,2013-06-04 00:12:00,
2013-06-03 19:22:00,79.0,70.0,29.86,NNE,33,0.0,7.0,73,0.00,,,0.07,,2013-06-04 00:22:00,
2013-06-03 19:32:00,78.0,69.0,29.86,NNE,33,0.0,7.0,73,0.00,,,0.07,,2013-06-04 00:32:00,
2013-06-03 19:42:00,78.0,69.0,29.86,NNE,33,0.0,7.0,73,0.00,,,0.07,,2013-06-04 00:42:00,
2013-06-03 19:52:00,77.0,68.0,29.87,NNE,33,0.0,7.0,74,0.00,,,0.07,,2013-06-04 00:52:00,
2013-06-03 20:02:00,77.0,68.0,29.87,NNE,33,0.0,7.0,75,0.00,,,0.07,,2013-06-04 01:02:00,
2013-06-03 20:12:00,77.0,68.0,29.87,NNE,33,0.0,7.0,75,0.00,,,0.07,,2013-06-04 01:12:00,
2013-06-03 20:22:00,76.0,68.0,29.88,NNE,33,0.0,7.0,76,0.00,,,0.07,,2013-06-04 01:22:00,
2013-06-03 20:32:00,75.0,67.0,29.88,NNE,33,0.0,7.0,77,0.00,,,0.07,,2013-06-04 01:32:00,
2013-06-03 20:42:00,75.0,67.0,29.88,NNE,33,0.0,7.0,77,0.00,,,0.07,,2013-06-04 01:42:00,
2013-06-03 20:52:00,75.0,68.0,29.88,NNE,33,0.0,7.0,79,0.00,,,0.07,,2013-06-04 01:52:00,
2013-06-03 21:02:00,74.0,67.0,29.89,NNE,33,0.0,7.0,80,0.00,,,0.07,,2013-06-04 02:02:00,
2013-06-03 21:12:00,73.0,66.0,29.89,NNE,33,0.0,7.0,80,0.00,,,0.07,,2013-06-04 02:12:00,
2013-06-03 21:22:00,73.0,66.0,29.89,NNE,33,0.0,7.0,80,0.00,,,0.07,,2013-06-04 02:22:00,
2013-06-03 21:32:00,73.0,67.0,29.90,NNE,33,0.0,7.0,82,0.00,,,0.03,,2013-06-04 02:32:00,
2013-06-03 21:42:00,73.0,67.0,29.90,NNE,33,0.0,7.0,82,0.00,,,0.03,,2013-06-04 02:42:00,
2013-06-03 21:52:00,72.0,66.0,29.90,NNE,33,0.0,7.0,82,0.00,,,0.01,,2013-06-04 02:52:00,
2013-06-03 22:02:00,72.0,67.0,29.90,NNE,33,0.0,7.0,83,0.00,,,0.01,,2013-06-04 03:02:00,
2013-06-03 22:12:00,71.0,66.0,29.91,NNE,33,0.0,7.0,85,0.00,,,0.01,,2013-06-04 03:12:00,
2013-06-03 22:22:00,71.0,66.0,29.91,NNE,33,0.0,7.0,85,0.00,,,0.01,,2013-06-04 03:22:00,
2013-06-03 22:32:00,71.0,66.0,29.91,NNE,33,0.0,7.0,85,0.00,,,0.01,,2013-06-04 03:32:00,
2013-06-03 22:43:00,71.0,66.0,29.91,NNE,33,0.0,7.0,85,0.00,,,0.01,,2013-06-04 03:43:00,
2013-06-03 22:53:00,71.0,67.0,29.91,NNE,33,0.0,7.0,86,0.00,,,0.01,,2013-06-04 03:53:00,
2013-06-03 23:03:00,71.0,67.0,29.91,NNE,33,0.0,7.0,88,0.00,,,0.01,,2013-06-04 04:03:00,
2013-06-03 23:13:00,71.0,67.0,29.91,NNE,33,0.0,7.0,88,0.00,,,0.01,,2013-06-04 04:13:00,
2013-06-03 23:23:00,70.0,66.0,29.91,NNE,33,0.0,7.0,88,0.00,,,0.01,,2013-06-04 04:23:00,
2013-06-03 23:33:00,70.0,67.0,29.91,NNE,33,0.0,7.0,89,0.00,,,0.01,,2013-06-04 04:33:00,
2013-06-03 23:42:00,70.0,67.0,29.91,NNE,33,0.0,7.0,89,0.00,,,0.01,,2013-06-04 04:42:00,
2013-06-03 23:53:00,70.0,67.0,29.91,NNE,33,0.0,7.0,89,0.00,,,0.01,,2013-06-04 04:53:00,